Regional Weather Roundup
Issued by NWS

Home | Current Version | Previous Version | Text Only | Print | Product List | Glossary Off
Versions: 1 2 3 4 5 6 7 8 9 10 11 12 13 14 15 16 17 18 19 20 21 22 23 24 25 26 27 28 29 30 31 32 33 34 35 36 37 38 39 40 41 42 43 44 45 46 47 48 49 50

037
ASUS44 KLIX 231101
RWRLA
LOUISIANA WEATHER ROUNDUP
NATIONAL WEATHER SERVICE NEW ORLEANS LA
500 AM CST SUN NOV 23 2014

NOTE: "FAIR" INDICATES FEW OR NO CLOUDS BELOW 12,000 FEET WITH NO
      SIGNIFICANT WEATHER AND/OR OBSTRUCTIONS TO VISIBILITY.
      SKY/WX - SKY CONDITION AND SIGNIFICANT WEATHER.
      TMP - AIR TEMPERATURE.    DP   - DEWPOINT TEMPERATURE.
      RH  - RELATIVE HUMIDITY.  PRES - PRESSURE.
      HX  - HEAT INDEX.         WCI  - WIND CHILL INDEX.

*  THESE STATIONS ARE NOT NWS OR FAA STATIONS AND ARE NOT UNDER
   NWS QUALITY CONTROL.

LAZ040-048-061>063-065-066-069-231200-
SOUTHEAST LOUISIANA

CITY           SKY/WX    TMP DP  RH WIND       PRES   REMARKS
N.O. AUDUBON   NOT AVBL
N.O. INTL ARPT LGT RAIN  63  60  90 E12       29.72F FOG
N.O. LAKEFRONT FOG       61  59  93 E10       29.74F VSB 1/2
N.O. DOWNTOWN* CLOUDY    61  57  88 NE9       29.73F
SLIDELL        LGT RAIN  65  63  93 CALM      29.75F FOG
BATON ROUGE    LGT RAIN  64  62  93 E8        29.73F
BOOTHVILLE     CLOUDY    66  66 100 SE6       29.73F FOG
BELLE CHASSE   CLOUDY    63  60  90 NE10      29.70F
BOGALUSA*        N/A     63  60  91 E5        29.77F FOG
NEW ROADS*     NOT AVBL
GONZALES*      NOT AVBL
HAMMOND*       NOT AVBL
HOUMA*         NOT AVBL
PORT FOURCHON* PTSUNNY   70  68  94 SE13G21   29.71F

$$

LAZ041-044-053-054-231200-
SOUTHWEST LOUISIANA

CITY           SKY/WX    TMP DP  RH WIND       PRES   REMARKS
LAKE CHARLES   LGT RAIN  62  60  93 N12       29.58F
LAFAYETTE      HVY RAIN  64  32  30 E8G17     29.66F
PATTERSON      CLOUDY    64  63  94 W9        29.70F
SALT POINT       N/A     70  61  73 W10G31    29.71R
NEW IBERIA     HVY RAIN  66  65  96 VRB6      29.69F FOG
CHENAULT AIRPK NOT AVBL

$$

LAZ027-028-231200-
CENTRAL LOUISIANA

CITY           SKY/WX    TMP DP  RH WIND       PRES   REMARKS
FORT POLK      RAIN      63  62  96 E6        29.63F FOG
ALEXANDRIA INT HVY RAIN  63  62  97 E10       29.64F FOG
ALEXANDRIA     HVY RAIN  63  62  97 E10       29.68F

$$

LAZ001-002-231200-
NORTHWEST LOUISIANA

CITY           SKY/WX    TMP DP  RH WIND       PRES   REMARKS
SHREVEPORT     RAIN      63  62  97 S10       29.64S FOG
BARKSDALE AFB  LGT RAIN  62  62 100 SE12      29.65S
DTN SHREVEPORT LGT RAIN  62  60  93 SE10      29.65F FOG

$$

LAZ014-016-231200-
NORTHEAST LOUISIANA

CITY           SKY/WX    TMP DP  RH WIND       PRES   REMARKS
MONROE         LGT RAIN  62  60  93 SE6       29.72F
TALLULAH       CLOUDY    62  58  86 SE12      29.74F

$$




USA.gov is the U.S. government's official web portal to all federal, state and local government web resources and services.